Regional Weather Roundup
Issued by NWS Northern Indiana

Home | Current Version | Previous Version | Graphics & Text | Print | Product List | Glossary On
Versions: 1 2 3 4 5 6 7 8 9 10 11 12 13 14 15 16 17 18 19 20 21 22 23 24 25 26 27 28 29 30 31 32 33 34 35 36 37 38 39 40 41 42 43 44 45 46 47 48 49 50
000
ASUS43 KIWX 210210
RWRIWX

KIWX WEATHER ROUNDUP
NATIONAL WEATHER SERVICE NORTHERN INDIANA
900 PM EST TUE FEB 20 2018

NOTE: "FAIR" INDICATES FEW OR NO CLOUDS BELOW 12,000 FEET WITH NO
SIGNIFICANT WEATHER AND/OR OBSTRUCTIONS TO VISIBILITY.

* THESE STATIONS ARE NOT UNDER NWS QUALITY CONTROL. THEY ALSO MAY NOT
  REPORT WEATHER SUCH AS PRECIPITATION OR FOG.

INZ001>027-210300-
NORTHERN INDIANA

CITY           SKY/WX    TMP DP  RH WIND       PRES   REMARKS
GARY*          LGT RAIN  43  43 100 NW9       30.05S
VALPARAISO     RAIN      51  49  92 NW9       30.05R FOG
MICHIGAN CITY* RAIN      37  37 100 NW3       30.09R
LAPORTE*       RAIN      46  45  96 NW15G21   30.06R
SOUTH BEND     HVY RAIN  55  54  96 W10       30.04R FOG
ELKHART*       RAIN      55  54  94 S6        30.02R
GOSHEN         RAIN      56  55  97 S15       30.03R FOG
MONTICELLO*    RAIN      56  55  95 W6        30.04R
LOGANSPORT*    LGT RAIN  54  54 100 CALM      30.07R
ROCHESTER*     LGT RAIN  57 N/A N/A S6        30.05R
WARSAW*        LGT RAIN  54  54 100 CALM      30.04R
AUBURN*        LGT RAIN  55  54  94 CALM      30.04F
FORT WAYNE     CLOUDY    59  56  89 CALM      30.05S
HUNTINGTON*    CLOUDY    58  56  94 CALM      30.05S
PERU/GRISSOM   LGT RAIN  57  57 100 NW7       30.05F
MARION*        CLOUDY    60  55  83 CALM      30.06R FOG

$$
INZ028>050-210300-
CENTRAL INDIANA

CITY           SKY/WX    TMP DP  RH WIND       PRES   REMARKS
LAFAYETTE      LGT RAIN  56  56 100 CALM      30.04R
KOKOMO*        CLOUDY    58  55  90 NW8       30.06R
MUNCIE*        FAIR      70  55  59 S16G23    30.04R
INDIANAPOLIS   CLOUDY    69  54  58 S18       30.04S

$$
MIZ043>046-050>051-056>058-064>065-071>073-077>080-210300-
SOUTHWEST LOWER MICHIGAN

CITY           SKY/WX    TMP DP  RH WIND       PRES   REMARKS
BATTLE CREEK   RAIN      55  54  96 S12       30.01R FOG
BENTON HARBOR  RAIN      40  38  93 NW7       30.06R FOG
COLDWATER*     RAIN      55  55 100 S5        30.03R
HILLSDALE*     DRIZZLE   54  52  94 CALM      30.02F
HOLLAND        RAIN      40  37  89 NW12      30.04R
GRAND RAPIDS   LGT RAIN  50  49  96 W18G29    30.00R
KALAMAZOO      RAIN      56  54  93 S10       30.02R FOG
STURGIS*       RAIN      56  55  99 S7        30.02R
THREE RIVERS*  HVY RAIN  55  55  99 S6        30.02R

$$
OHZ001>008-015>018-024>025-210300-
NORTHWEST OHIO

CITY           SKY/WX    TMP DP  RH WIND       PRES   REMARKS
WAUSEON*       MOCLDY    59  59 100 NW15G29   30.04R
DEFIANCE       CLOUDY    59  55  87 NW13      30.05R
FINDLAY        FAIR      67  53  61 S21G28    30.03R
TOLEDO EXPRESS CLOUDY    69  57  65 S14G22    29.99S
TOLEDO METCALF MOCLDY    66  56  70 S18       30.01R
LIMA           FAIR      68  55  63 S15G25    30.04F

$$
AND FOR LAKE MICHIGAN COASTAL AND OPEN LAKE BUOY OBSERVATIONS

STATION/POSITION TEMP    WIND        PRES    VSBY  WAVE
                 AIR SEA DIR/SP/G                  HT/PER
                 (F)     (DEG/KT/KT) (MB)    (MI)  (FT/S)
CALUMET HARBOR    40     300/  6/  9 1017.1R
MICHIGAN CITY     37     300/ 10/ 11   N/A

$$
&&




USA.gov is the U.S. government's official web portal to all federal, state and local government web resources and services.